Flag for U.S.A. Weather past 2 weeks in Washington DC, District of Columbia, U.S.A.

Now
69 °F

Light rain. Mostly cloudy.


Feels Like: 69 °F
Forecast: 69 / 85 °F
Wind: 3 mph from South

Location: Reagan National Airport

Current Time: Jul 1, 2015 at 3:18:51 AM

Latest Report: Jul 1, 2015 at 2:52 AM


Visibility: 8 mi

Pressure: 29.82 "Hg

Humidity: 87%

Dew point: 65 °F

Location of Washington DCLocation

Historic Weather in Washington DC — Graph

°F

Washington DC temperature yesterday

Maximum temperature yesterday: 89 °F (at 3:52 PM)
Minimum temperature yesterday: 71 °F (at 3:52 AM)
Average temperature yesterday: 80 °F

Past Weeks' High & Low Weather Summary

 TemperatureHumidityPressure
High96 °F (Jun 23, 4:52 PM)89% (Jun 20, 8:56 PM)30.12 "Hg (Jun 20, 8:56 PM)
Low63 °F (Jun 29, 5:52 AM)36% (Jun 29, 4:52 PM)29.66 "Hg (Jun 28, 1:52 AM)
Average80 °F66%29.94 "Hg
* Reported Jun 16 1:52 AM — Jul 1 1:52 AM, Washington DC, Weather by CustomWeather, © 2015

Note: Actual official high and low records may vary slightly from our data, if they occured in-between our weather recording intervals... More about our weather records

Advertising

Washington DC weather history for previous 24 hours

 ConditionsComfort  
Time TempWeatherWind HumidityBarometerVisibility
1:52 AM
Wed, Jul 1
70 °FThunderstorms. Mostly cloudy.9 mph84%29.85 "Hg7 mi
1:02 AM73 °FStrong thunderstorms. Mostly cloudy.32 mph83%29.88 "Hg1 mi
1:00 AM77 °FStrong thunderstorms. Mostly cloudy.37 mph79%29.88 "Hg1 mi
11:52 PM
Tue, Jun 30
79 °FMostly cloudy.7 mph72%29.81 "Hg10 mi
10:52 PM78 °FOvercast.8 mph74%29.81 "Hg10 mi
9:52 PM80 °FPartly cloudy.8 mph67%29.82 "Hg10 mi
8:52 PM81 °FPartly sunny.9 mph67%29.81 "Hg10 mi
7:52 PM85 °FOvercast.9 mph57%29.81 "Hg10 mi
6:52 PM87 °FOvercast.12 mph50%29.80 "Hg10 mi
5:52 PM88 °FBroken clouds.18 mph50%29.79 "Hg10 mi
4:52 PM88 °FBroken clouds.15 mph50%29.78 "Hg10 mi
3:52 PM89 °FBroken clouds.16 mph52%29.81 "Hg10 mi
2:52 PM88 °FScattered clouds.12 mph55%29.83 "Hg10 mi
1:52 PM87 °FScattered clouds.15 mph53%29.86 "Hg10 mi
12:52 PM83 °FBroken clouds.7 mph63%29.88 "Hg10 mi
11:52 AM82 °FScattered clouds.8 mph74%29.90 "Hg10 mi
10:52 AM78 °FBroken clouds.6 mph84%29.90 "Hg10 mi
9:52 AM78 °FMostly cloudy.6 mph79%29.92 "Hg10 mi
8:52 AM76 °FMostly cloudy.7 mph82%29.91 "Hg10 mi
7:52 AM76 °FPartly sunny.8 mph82%29.91 "Hg10 mi
6:52 AM73 °FPartly sunny.6 mph88%29.92 "Hg10 mi
5:52 AM72 °FPassing clouds.7 mph87%29.90 "Hg10 mi
4:52 AM72 °FPassing clouds.6 mph84%29.90 "Hg10 mi
3:52 AM71 °FClear.3 mph81%29.90 "Hg10 mi
Weather by CustomWeather, © 2015

See weather overviewHow to use our weather pages